Content
SEND FEEDBACK

Daily
Averages
Monthly
Summary
United States of America

ALMYRA, ARKANSAS


Home > North America > United States > Arkansas
Elevation: 64 meters     Latitude: 34 24N     Longitude: 091 27W

WEATHER
 
SELECT A DAY
Number of Records: 460,622;   Date Range: 1/1/95 - 10/30/14
 
SHARE

PRINT THIS DATA

[ ← Previous Day ]
WEATHER ALMANAC - 13 FEBRUARY, 2013
[ Next Day → ]
[ °F ]   °C
Weather ElementAverageHighLow
Temperature6.3 °C10 °C (1:55 pm)4 °C (4:15 am)
Dewpoint2.1 °C4 °C (12:36 am)1 °C (5:35 am)
Humidity75.3 %87 % (12:36 am)58 % (2:16 pm)
Barometer1015.6 hPa1018.3 hPa (10:35 am)1011.2 hPa (12:36 am)
Wind Speed16.7 km/h33.3 km/h (3:35 am)
Wind Gust33.3 km/h (2:15 am)
Weather ElementAverage
Visibility15 km
Wind DirectionWNW (277.5 °)

Weather ElementTotal
Precipitation0.76 mm
Heating Degree Days11.3 (Base 18.3)
Averaged from 61 records on 13 February, 2013
WEATHER CONDITIONS BREAKOUT
WIND DIRECTION BREAKOUT
WEATHER BY HOUR - 13 FEBRUARY, 2013
[ °F ]   °C
Local TimeTemperatureDewpointHumidityBarometerVisibilityWind DirectionWind SpeedGust SpeedPrecipitationEventsConditions
12:36 AM6 °C4 °C87 %1011.2 hPa4.8 kmNNW (340°)16.7 km/hOvercast
12:55 AM6 °C4 °C87 %1011.2 hPa4.8 kmNNW (340°)22.2 km/hOvercast
1:15 AM6 °C4 °C87 %1011.2 hPa3.2 kmNNW (340°)27.8 km/h0.25 mmOvercast
1:35 AM6 °C3 °C81 %1011.2 hPa4.8 kmNorth (350°)25.9 km/h0.25 mmOvercast
1:55 AM6 °C3 °C81 %1011.2 hPa8 kmNorth (350°)29.6 km/h0.25 mmOvercast
2:15 AM6 °C3 °C81 %1011.5 hPa8 kmNNW (340°)25.9 km/h33.3 km/hMostly Cloudy
2:35 AM6 °C3 °C81 %1011.5 hPa11.3 kmNNW (340°)27.8 km/hOvercast
3:15 AM5 °C2 °C81 %1012.2 hPa16.1 kmNNW (340°)29.6 km/hOvercast
3:35 AM5 °C2 °C81 %1012.2 hPa16.1 kmNorth (350°)33.3 km/hOvercast
4:15 AM4 °C2 °C87 %1012.5 hPa16.1 kmNNW (340°)24.1 km/hOvercast
4:35 AM4 °C2 °C87 %1012.9 hPa16.1 kmNNW (340°)24.1 km/hOvercast
4:55 AM4 °C2 °C87 %1013.2 hPa16.1 kmNNW (330°)22.2 km/hOvercast
5:35 AM4 °C1 °C81 %1013.9 hPa16.1 kmNNW (330°)22.2 km/hOvercast
5:55 AM4 °C1 °C81 %1013.9 hPa16.1 kmNNW (340°)18.5 km/hOvercast
6:35 AM4 °C1 °C81 %1014.6 hPa16.1 kmNW (320°)14.8 km/hOvercast
6:55 AM4 °C1 °C81 %1014.9 hPa16.1 kmNW (320°)14.8 km/hOvercast
7:15 AM4 °C1 °C81 %1015.2 hPa16.1 kmNW (310°)14.8 km/hOvercast
7:36 AM4 °C1 °C81 %1015.6 hPa16.1 kmNW (310°)18.5 km/hOvercast
7:55 AM4 °C1 °C81 %1015.9 hPa16.1 kmNW (310°)18.5 km/hOvercast
8:15 AM4 °C2 °C87 %1015.9 hPa16.1 kmNW (310°)16.7 km/hOvercast
8:55 AM5 °C2 °C81 %1016.6 hPa16.1 kmNW (310°)18.5 km/hOvercast
9:15 AM5 °C1 °C76 %1016.9 hPa16.1 kmWNW (300°)18.5 km/hOvercast
9:35 AM5 °C2 °C81 %1017.3 hPa16.1 kmNW (310°)20.4 km/hOvercast
10:15 AM6 °C2 °C76 %1017.9 hPa16.1 kmNW (310°)18.5 km/hOvercast
10:35 AM6 °C2 °C76 %1018.3 hPa16.1 kmNW (310°)16.7 km/hOvercast
10:55 AM6 °C2 °C76 %1018.3 hPa16.1 kmWNW (300°)20.4 km/hOvercast
11:15 AM7 °C2 °C71 %1018.3 hPa16.1 kmWNW (290°)18.5 km/hOvercast
11:35 AM8 °C3 °C71 %1017.9 hPa16.1 kmNW (310°)18.5 km/hOvercast
12:15 PM8 °C2 °C66 %1017.9 hPa16.1 kmWest (270°)13 km/hOvercast
12:55 PM8 °C2 °C66 %1016.9 hPa16.1 kmNNW (330°)7.4 km/hMostly Cloudy
1:15 PM8 °C2 °C66 %1016.6 hPa16.1 kmWNW (300°)7.4 km/hScattered Clouds
1:35 PM9 °C3 °C66 %1016.6 hPa16.1 kmWNW (300°)11.1 km/hMostly Cloudy
1:55 PM10 °C3 °C62 %1016.3 hPa16.1 kmNNW (330°)13 km/hOvercast
2:16 PM10 °C2 °C58 %1015.9 hPa16.1 kmNW (310°)16.7 km/hOvercast
2:35 PM10 °C3 °C62 %1015.9 hPa16.1 kmWest (270°)16.7 km/hOvercast
2:55 PM9 °C3 °C66 %1015.9 hPa16.1 kmWNW (300°)16.7 km/hOvercast
3:15 PM10 °C3 °C62 %1015.9 hPa16.1 kmWNW (290°)16.7 km/hOvercast
3:35 PM9 °C3 °C66 %1016.3 hPa16.1 kmWest (280°)14.8 km/hOvercast
3:55 PM9 °C2 °C62 %1015.9 hPa16.1 kmWest (270°)13 km/hOvercast
4:15 PM9 °C2 °C62 %1015.9 hPa16.1 kmWest (260°)14.8 km/hScattered Clouds
4:36 PM9 °C2 °C62 %1015.9 hPa16.1 kmWest (270°)14.8 km/hClear
4:55 PM9 °C2 °C62 %1015.9 hPa16.1 kmWSW (250°)13 km/hPartly Cloudy
5:15 PM9 °C3 °C66 %1015.9 hPa16.1 kmWSW (250°)13 km/hPartly Cloudy
5:55 PM8 °C2 °C66 %1016.3 hPa16.1 kmWSW (240°)9.3 km/hClear
6:15 PM8 °C3 °C71 %1016.3 hPa16.1 kmSSW (200°)11.1 km/hClear
6:35 PM7 °C2 °C71 %1016.3 hPa16.1 kmSouth (190°)11.1 km/hClear
6:56 PM7 °C2 °C71 %1016.3 hPa16.1 kmSouth (190°)13 km/hClear
7:15 PM7 °C2 °C71 %1016.6 hPa16.1 kmSouth (190°)11.1 km/hClear
7:35 PM6 °C2 °C76 %1016.6 hPa16.1 kmSouth (190°)11.1 km/hClear
7:55 PM7 °C2 °C71 %1016.6 hPa16.1 kmSouth (180°)9.3 km/hClear
8:15 PM6 °C2 °C76 %1016.9 hPa16.1 kmSSW (200°)11.1 km/hClear
8:35 PM6 °C2 °C76 %1016.9 hPa16.1 kmSSW (200°)13 km/hClear
8:55 PM5 °C2 °C81 %1016.9 hPa16.1 kmSouth (190°)14.8 km/hClear
9:16 PM5 °C1 °C76 %1017.3 hPa16.1 kmSouth (190°)13 km/hClear
9:35 PM5 °C1 °C76 %1017.3 hPa16.1 kmSouth (190°)13 km/hClear
9:55 PM5 °C1 °C76 %1017.3 hPa16.1 kmSouth (190°)11.1 km/hClear
10:15 PM4 °C1 °C81 %1017.6 hPa16.1 kmSSW (210°)13 km/hClear
10:36 PM4 °C1 °C81 %1017.6 hPa16.1 kmSSW (200°)13 km/hClear
10:55 PM4 °C1 °C81 %1017.6 hPa16.1 kmSSW (200°)14.8 km/hClear
11:15 PM4 °C1 °C81 %1017.6 hPa16.1 kmSSW (200°)14.8 km/hClear
11:55 PM4 °C2 °C87 %1017.6 hPa16.1 kmSSW (210°)14.8 km/hClear
Hourly data recorded from KSGT, located 0 kilometers away from Almyra, Arkansas







STORIES FROM OUR PARTNERS